Hourly Data Report for October 22, 2003

SHERBROOKE A
QUEBEC

45°26'00.000" N
71°41'00.000" W
241.40 m
7028124
71610
YSC

Download Data

Hourly Data (October 2003)
Hourly Data Report for October 22, 2003
TIME
LST
Temp Definition
°C
Dew Point Definition
°C
Rel Hum Definition
%
Precip. Amount Definition
mm

Wind Dir Definition
10's deg

Wind Spd Definition
km/h
Visibility Definition
km
Stn Press Definition
kPa
Hmdx Definition


Wind Chill Definition


Weather Definition


00:00 0.2 -3.2 78   4 4 15.0 97.48      
01:00 0.3 -3.5 76   3 7 15.0 97.49      
02:00 0.2 -3.2 78   1 7 15.0 97.46      
03:00 0.0 -3.4 78   4 11 15.0 97.45   -4  
04:00 -0.2 -2.8 83   6 6 15.0 97.49   -2  
05:00 -0.3 -2.8 83   4 7 15.0 97.53   -3  
06:00 -0.4 -3.0 83   4 9 15.0 97.56   -4  
07:00 -0.2 -3.5 78   3 19 24.1 97.56   -5 Mostly Cloudy
08:00 -0.2 -3.7 77   3 7 24.1 97.60   -3 Mostly Cloudy
09:00 0.6 -3.5 74   5 9 24.1 97.58     Cloudy
10:00 1.1 -3.8 70   5 13 24.1 97.55     Cloudy
11:00 1.4 -4.0 67   3 15 24.1 97.48     Mostly Cloudy
12:00 2.2 -4.9 59   5 19 24.1 97.44     Mostly Cloudy
13:00 2.4 -4.5 60   1 13 24.1 97.43     Mostly Cloudy
14:00 2.3 -4.6 60   3 9 24.1 97.43     Cloudy
15:00 1.9 -4.4 63   1 13 24.1 97.44     Cloudy
16:00 1.6 -4.9 62   4 15 24.1 97.46     Cloudy
17:00 1.2 -3.9 69   36 6 15.0 97.49      
18:00 0.9 -4.2 69   35 6 15.0 97.49      
19:00 0.9 -4.3 68   36 6 15.0 97.46      
20:00 1.4 -5.0 62   2 7 15.0 97.43      
21:00 1.4 -4.9 63   4 11 15.0 97.43      
22:00 1.1 -4.3 67   2 15 15.0 97.39     Snow
23:00 0.2 -3.3 77   1 6 15.0 97.35     Snow

Notes on Data Quality.

Legend

  • E = Estimated
  • M = Missing
  • NA = Not Available*
  • [empty] = Indicates an unobserved value
Date modified: